Home > Weather > San Luis Obispo > Past weeks

Flag for USA Past Weather in San Luis Obispo, California, USA — Yesterday and Last 2 Weeks

Now
65 °F

Sunny.


Feels Like: 65 °F
Forecast: 54 / 73 °F
Wind: 14 mph from Northwest

Location: San Luis Obispo County-Mc Chesney Field

Current Time: May 29, 2016 at 6:13:17 PM

Latest Report: May 29, 2016 at 5:56 PM


Visibility: 10 mi

Pressure: 29.97 "Hg

Humidity: 68%

Dew Point: 54 °F

Location of San Luis ObispoLocation

Past Weather in San Luis Obispo — Graph

°F

San Luis Obispo Temperature Yesterday

Maximum temperature yesterday: 70 °F (at 12:56 PM)
Minimum temperature yesterday: 54 °F (at 6:56 AM)
Average temperature yesterday: 61 °F

High & Low Weather Summary for the Past Weeks

 TemperatureHumidityPressure
High77 °F (May 18, 1:56 PM)97% (May 18, 4:56 AM)30.14 "Hg (May 18, 4:56 AM)
Low45 °F (May 21, 5:56 AM)39% (May 22, 9:56 AM)29.82 "Hg (May 28, 2:56 AM)
Average60 °F72%29.97 "Hg
* Reported May 14 5:56 PM — May 29 4:56 PM, San Luis Obispo, Weather by CustomWeather, © 2016

Note: Actual official high and low records may vary slightly from our data, if they occured in-between our weather recording intervals... More about our weather records

Advertising

San Luis Obispo Weather History for the Previous 24 Hours

Scroll right to see more
 ConditionsComfort  
Time TempWeatherWind HumidityBarometerVisibility
4:56 PM
Sun, May 29
68 °FSunny.10 mph61%29.97 "Hg10 mi
3:56 PM70 °FSunny.10 mph57%29.98 "Hg10 mi
2:56 PM70 °FSunny.N/A57%29.99 "Hg10 mi
1:56 PM69 °FSunny.6 mph59%30.01 "Hg10 mi
12:56 PM64 °FOvercast.7 mph70%30.03 "Hg10 mi
11:56 AM61 °FOvercast.3 mph78%30.03 "Hg10 mi
10:56 AM61 °FOvercast.5 mph75%30.04 "Hg10 mi
9:56 AM60 °FOvercast.3 mph78%30.03 "Hg10 mi
8:56 AM59 °FLow clouds.No wind81%30.03 "Hg9 mi
7:56 AM58 °FLow clouds.5 mph87%30.01 "Hg7 mi
6:56 AM58 °FLow clouds.3 mph84%29.99 "Hg4 mi
5:56 AM57 °FFog.5 mph87%29.98 "Hg3 mi
4:56 AM57 °FLow clouds.5 mph90%29.96 "Hg7 mi
3:56 AM58 °FLow clouds.3 mph87%29.95 "Hg9 mi
2:56 AM59 °FLow clouds.5 mph84%29.95 "Hg9 mi
1:56 AM60 °FOvercast.5 mph80%29.95 "Hg10 mi
12:56 AM60 °FOvercast.3 mph80%29.95 "Hg10 mi
11:56 PM
Sat, May 28
60 °FOvercast.3 mph80%29.95 "Hg10 mi
10:56 PM60 °FOvercast.3 mph80%29.94 "Hg10 mi
9:56 PM59 °FOvercast.7 mph81%29.93 "Hg9 mi
8:56 PM61 °FOvercast.5 mph78%29.92 "Hg10 mi
8:03 PM62 °FOvercast.3 mph75%29.92 "Hg10 mi
6:56 PM64 °FSunny.6 mph70%29.89 "Hg10 mi
Weather by CustomWeather, © 2016

See weather overviewHow to use our weather pages